Previsão horária em Catu

Hoje, 27 Julho, Terça-feira

Tempo Temperatura Precipitação Vento Pressão Humidade
00:00 +19°C° 0 mm 0 m/s 755 mmHg 97%
01:00 +19°C° 0 mm 0 m/s 755 mmHg 97%
02:00 +19°C° 0 mm 0 m/s 755 mmHg 97%
03:00 +19°C° 0 mm 0 m/s 754 mmHg 97%
04:00 +19°C° 0 mm 0 m/s 754 mmHg 97%
05:00 +19°C° 0 mm 0 m/s 754 mmHg 97%
06:00 +18°C° 0 mm 0 m/s 755 mmHg 97%
07:00 +20°C° 0.1 mm 0 m/s 755 mmHg 91%
08:00 +24°C° 0.1 mm 1 m/s 755 mmHg 86%
09:00 +26°C° 0.1 mm 1 m/s 756 mmHg 80%
10:00 +26°C° 0.6 mm 1 m/s 755 mmHg 78%
11:00 +27°C° 0.6 mm 1 m/s 755 mmHg 77%
12:00 +27°C° 0.6 mm 2 m/s 755 mmHg 75%
13:00 +27°C° 0.6 mm 2 m/s 754 mmHg 76%
14:00 +27°C° 0.6 mm 2 m/s 754 mmHg 77%
15:00 +27°C° 0.6 mm 2 m/s 753 mmHg 77%
16:00 +25°C° 0.2 mm 2 m/s 753 mmHg 83%
17:00 +24°C° 0.2 mm 1 m/s 753 mmHg 89%
18:00 +23°C° 0.2 mm 1 m/s 753 mmHg 95%
19:00 +22°C° 0 mm 1 m/s 754 mmHg 95%
20:00 +22°C° 0 mm 1 m/s 754 mmHg 96%
21:00 +22°C° 0 mm 1 m/s 755 mmHg 97%
22:00 +22°C° 0 mm 1 m/s 755 mmHg 97%
23:00 +20°C° 0 mm 0 m/s 754 mmHg 97%

Amanhã, 28 Julho, Quarta-feira

Tempo Temperatura Precipitação Vento Pressão Humidade
00:00 +19°C° 0 mm 0 m/s 754 mmHg 97%
01:00 +21°C° 0 mm 1 m/s 754 mmHg 97%
02:00 +21°C° 0 mm 1 m/s 753 mmHg 97%
03:00 +21°C° 0 mm 1 m/s 753 mmHg 97%
04:00 +21°C° 0 mm 1 m/s 753 mmHg 97%
05:00 +21°C° 0 mm 1 m/s 753 mmHg 97%
06:00 +21°C° 0 mm 1 m/s 753 mmHg 97%
07:00 +23°C° 0 mm 1 m/s 754 mmHg 90%
08:00 +25°C° 0 mm 1 m/s 754 mmHg 83%
09:00 +27°C° 0 mm 1 m/s 755 mmHg 76%
10:00 +28°C° 0 mm 1 m/s 754 mmHg 69%
11:00 +30°C° 0 mm 1 m/s 754 mmHg 62%
12:00 +31°C° 0 mm 1 m/s 753 mmHg 55%
13:00 +31°C° 0 mm 1 m/s 752 mmHg 57%
14:00 +30°C° 0 mm 2 m/s 752 mmHg 59%
15:00 +30°C° 0 mm 2 m/s 751 mmHg 62%
16:00 +28°C° 0 mm 2 m/s 751 mmHg 70%
17:00 +26°C° 0 mm 2 m/s 752 mmHg 78%
18:00 +24°C° 0 mm 2 m/s 752 mmHg 86%
19:00 +24°C° 0 mm 2 m/s 752 mmHg 88%
20:00 +23°C° 0 mm 2 m/s 753 mmHg 90%
21:00 +21°C° 0 mm 2 m/s 753 mmHg 91%
22:00 +21°C° 0 mm 2 m/s 753 mmHg 93%
23:00 +21°C° 0 mm 2 m/s 753 mmHg 96%

Depois de amanhã, 29 Julho, Quinta-feira

Tempo Temperatura Precipitação Vento Pressão Humidade
00:00 +21°C° 0 mm 1 m/s 753 mmHg 98%
01:00 +21°C° 0 mm 1 m/s 753 mmHg 98%
02:00 +21°C° 0 mm 1 m/s 752 mmHg 98%
03:00 +21°C° 0 mm 1 m/s 752 mmHg 98%
04:00 +21°C° 0 mm 1 m/s 752 mmHg 98%
05:00 +21°C° 0 mm 1 m/s 753 mmHg 98%
06:00 +18°C° 0 mm 0 m/s 753 mmHg 98%
07:00 +23°C° 0 mm 1 m/s 753 mmHg 89%
08:00 +25°C° 0 mm 1 m/s 754 mmHg 80%
09:00 +27°C° 0 mm 2 m/s 754 mmHg 71%
10:00 +29°C° 0 mm 1 m/s 753 mmHg 64%
11:00 +31°C° 0 mm 1 m/s 753 mmHg 57%
12:00 +32°C° 0 mm 1 m/s 752 mmHg 50%
13:00 +32°C° 0 mm 1 m/s 752 mmHg 50%
14:00 +32°C° 0 mm 2 m/s 751 mmHg 51%
15:00 +32°C° 0 mm 2 m/s 751 mmHg 52%
16:00 +30°C° 0 mm 2 m/s 751 mmHg 63%
17:00 +27°C° 0 mm 2 m/s 752 mmHg 74%
18:00 +25°C° 0 mm 3 m/s 753 mmHg 85%
19:00 +24°C° 0 mm 2 m/s 753 mmHg 89%
20:00 +23°C° 0 mm 2 m/s 754 mmHg 93%
21:00 +22°C° 0 mm 1 m/s 754 mmHg 97%
22:00 +22°C° 0 mm 1 m/s 754 mmHg 97%
23:00 +22°C° 0 mm 1 m/s 755 mmHg 98%

30 Julho, Sexta-feira

Tempo Temperatura Precipitação Vento Pressão Humidade
00:00 +22°C° 0 mm 1 m/s 755 mmHg 98%
01:00 +22°C° 0 mm 1 m/s 754 mmHg 98%
02:00 +22°C° 0 mm 1 m/s 754 mmHg 98%
03:00 +22°C° 0 mm 1 m/s 754 mmHg 98%
04:00 +22°C° 0.1 mm 1 m/s 755 mmHg 97%
05:00 +22°C° 0.1 mm 1 m/s 755 mmHg 96%
06:00 +22°C° 0.1 mm 1 m/s 755 mmHg 96%
07:00 +24°C° 0.1 mm 1 m/s 756 mmHg 87%
08:00 +26°C° 0.1 mm 2 m/s 756 mmHg 79%
09:00 +27°C° 0.1 mm 3 m/s 757 mmHg 70%
10:00 +28°C° 0.2 mm 3 m/s 756 mmHg 68%
11:00 +28°C° 0.2 mm 3 m/s 756 mmHg 65%
12:00 +29°C° 0.2 mm 3 m/s 756 mmHg 63%
13:00 +28°C° 0.8 mm 3 m/s 756 mmHg 70%
14:00 +27°C° 0.8 mm 3 m/s 755 mmHg 77%
15:00 +26°C° 0.8 mm 3 m/s 755 mmHg 84%
16:00 +25°C° 0.7 mm 3 m/s 755 mmHg 88%
17:00 +24°C° 0.7 mm 3 m/s 756 mmHg 91%
18:00 +22°C° 0.7 mm 3 m/s 756 mmHg 95%
19:00 +22°C° 0.6 mm 3 m/s 756 mmHg 96%
20:00 +22°C° 0.6 mm 3 m/s 757 mmHg 96%
21:00 +22°C° 0.6 mm 3 m/s 757 mmHg 97%
22:00 +22°C° 0.4 mm 3 m/s 757 mmHg 97%
23:00 +22°C° 0.4 mm 3 m/s 757 mmHg 96%

31 Julho, Sábado

Tempo Temperatura Precipitação Vento Pressão Humidade
00:00 +22°C° 0.4 mm 3 m/s 757 mmHg 96%
01:00 +22°C° 0.4 mm 3 m/s 757 mmHg 96%
02:00 +22°C° 0.4 mm 3 m/s 757 mmHg 95%
03:00 +22°C° 0.4 mm 3 m/s 756 mmHg 95%
04:00 +22°C° 0.4 mm 3 m/s 757 mmHg 94%
05:00 +21°C° 0.4 mm 3 m/s 757 mmHg 94%
06:00 +21°C° 0.4 mm 3 m/s 757 mmHg 93%
07:00 +22°C° 0.4 mm 4 m/s 758 mmHg 92%
08:00 +23°C° 0.4 mm 4 m/s 758 mmHg 90%
09:00 +23°C° 0.4 mm 4 m/s 759 mmHg 88%
10:00 +25°C° 0.5 mm 5 m/s 759 mmHg 82%
11:00 +26°C° 0.5 mm 5 m/s 758 mmHg 76%
12:00 +27°C° 0.5 mm 5 m/s 758 mmHg 70%
13:00 +26°C° 0.5 mm 5 m/s 757 mmHg 74%
14:00 +26°C° 0.5 mm 5 m/s 757 mmHg 78%
15:00 +25°C° 0.5 mm 5 m/s 757 mmHg 83%
16:00 +23°C° 0.4 mm 4 m/s 757 mmHg 86%
17:00 +22°C° 0.4 mm 4 m/s 757 mmHg 89%
18:00 +21°C° 0.4 mm 3 m/s 758 mmHg 92%
19:00 +21°C° 0.2 mm 3 m/s 758 mmHg 92%
20:00 +21°C° 0.2 mm 3 m/s 759 mmHg 91%
21:00 +21°C° 0.2 mm 3 m/s 759 mmHg 91%
22:00 +21°C° 0.1 mm 3 m/s 759 mmHg 91%
23:00 +20°C° 0.1 mm 3 m/s 759 mmHg 92%

1 Agosto, Domingo

Tempo Temperatura Precipitação Vento Pressão Humidade
00:00 +20°C° 0.1 mm 3 m/s 758 mmHg 93%
01:00 +20°C° 0.1 mm 2 m/s 758 mmHg 92%
02:00 +20°C° 0.1 mm 2 m/s 758 mmHg 91%
03:00 +20°C° 0.1 mm 2 m/s 757 mmHg 90%
04:00 +19°C° 0.1 mm 2 m/s 758 mmHg 91%
05:00 +19°C° 0.1 mm 2 m/s 758 mmHg 92%
06:00 +20°C° 0.1 mm 1 m/s 758 mmHg 93%
07:00 +20°C° 0.3 mm 2 m/s 759 mmHg 89%
08:00 +21°C° 0.3 mm 3 m/s 759 mmHg 85%
09:00 +22°C° 0.3 mm 3 m/s 760 mmHg 81%
10:00 +23°C° 0.1 mm 4 m/s 759 mmHg 72%
11:00 +26°C° 0.1 mm 4 m/s 759 mmHg 62%
12:00 +27°C° 0.1 mm 5 m/s 759 mmHg 52%
13:00 +26°C° 0.1 mm 5 m/s 758 mmHg 58%
14:00 +25°C° 0.1 mm 5 m/s 758 mmHg 63%
15:00 +25°C° 0.1 mm 5 m/s 757 mmHg 69%
16:00 +22°C° 0.1 mm 4 m/s 758 mmHg 75%
17:00 +21°C° 0.1 mm 3 m/s 758 mmHg 80%
18:00 +19°C° 0.1 mm 2 m/s 758 mmHg 86%
19:00 +20°C° 0 mm 1 m/s 758 mmHg 86%
20:00 +20°C° 0 mm 1 m/s 759 mmHg 86%
21:00 +19°C° 0 mm 1 m/s 759 mmHg 87%
22:00 +19°C° 0 mm 1 m/s 759 mmHg 89%
23:00 +19°C° 0 mm 1 m/s 759 mmHg 91%
Mostrar mais

Necessitamos do seu Consentimento

A Meteoprog e os seus Fornecedores de Serviços podem armazenar e aceder a dados pessoais como cookies, identificadores do dispositivo ou outras tecnologias semelhantes existentes no seu dispositivo e processar estes dados para personalizar conteúdos e anúncios, assim como funcionalidades nas redes sociais e análise de tráfego.

  • Armazenar e/ou aceder a informações no seu dispositivo

    Os cookies, identificadores do dispositivo ou outras informações podem ser armazenados ou acedidos no seu dispositivo, para os fins acima indicados.

  • Anúncios e conteúdos personalizados, medição de anúncios e conteúdos, dados sobre o público-alvo e desenvolvimento de produtos

    Os anúncios e os conteúdos podem ser personalizados com base num perfil. Podem ser adicionados dados adicionais para uma maior personalização dos anúncios e dos conteúdos. A eficácia dos anúncios e dos conteúdos pode ser medida. Podem ser obtidas informações sobre o público que visualizou os anúncios e os conteúdos. Estes dados podem ser usados para desenvolver ou melhorar sistemas, softwares ou a experiência do utilizador.

Ao clicar em "Eu concordo”, permitirá o uso de cookies, identificadores do dispositivo e web beacons mencionados ou outras tecnologias semelhantes. As configurações do navegador do seu dispositivo podem ser alteradas.

Para certos fins, podem ser invocados interesses legítimos ao invés de consentimento. Pode ler mais informação sobre este assunto na nossa Política de Privacidade e Cookies.